Grand Canyon, AZ

9:19 PM MST on August 25, 2016 (GMT -0700)
Grand Canyon National Park

Weather History for KGCN - January, 2013

Change the Weather History Date:

Saturday, January 19, 2013

  Actual Average Record
Temperature  
Mean Temperature 26 °F -  
Max Temperature 46 °F 44 °F 77 °F (2003)
Min Temperature 7 °F 17 °F -4 °F (2001)
Degree Days  
Heating Degree Days 38    
Moisture  
Dew Point 9 °F    
Average Humidity 57    
Maximum Humidity 80    
Minimum Humidity 19    
Precipitation  
Precipitation 0.00 in - - ()
Sea Level Pressure  
Sea Level Pressure 30.42 in    
Wind  
Wind Speed 4 mph (ENE)    
Max Wind Speed 14 mph    
Max Gust Speed 20 mph    
Visibility 10 miles    
Events      
Averages and records for this station are not official NWS values.
T = Trace of Precipitation, MM = Missing Value Source: NWS Daily Summary

Daily Weather History Graph

Daily Weather History Graph

Search for Another Location

Airport or City:

Trip Planner

Search our weather history database for the weather conditions in past years. The results will help you decide how hot, cold, wet, or windy it might be!

Date:

Astronomy

Jan. 19, 2013 Rise Set
Actual Time 7:36 AM MST 5:42 PM MST
Civil Twilight 7:09 AM MST 6:10 PM MST
Nautical Twilight 6:37 AM MST 6:41 PM MST
Astronomical Twilight 6:07 AM MST 7:12 PM MST
Moon 12:08 PM MST (1/19) 1:17 AM MST (1/19)
Length of Visible Light 11h 00m
Length of Day
10h 05m
First Quarter, 58% of the Moon is Illuminated
Jan 19
First Quarter
Jan 26
Full
Feb 3
Last Quarter
Feb 10
New
Feb 17
First Quarter

Hourly Weather History & Observations

Time (MST) Temp. Windchill Dew Point Humidity Pressure Visibility Wind Dir Wind Speed Gust Speed Precip Events Conditions
12:54 AM 14.0 °F - 7.0 °F 74% 30.35 in 10.0 mi Calm Calm - N/A   Clear
1:54 AM 14.0 °F 8.2 °F 7.0 °F 74% 30.35 in 10.0 mi NE 3.5 mph - N/A   Clear
2:54 AM 12.0 °F - 6.1 °F 77% 30.36 in 10.0 mi Calm Calm - N/A   Clear
3:54 AM 12.0 °F - 7.0 °F 80% 30.38 in 10.0 mi Calm Calm - N/A   Clear
4:54 AM 12.0 °F - 7.0 °F 80% 30.39 in 10.0 mi Calm Calm - N/A   Clear
5:54 AM 9.0 °F - 3.9 °F 80% 30.43 in 10.0 mi Calm Calm - N/A   Clear
6:54 AM 7.0 °F - 1.0 °F 77% 30.49 in 10.0 mi Calm Calm - N/A   Clear
7:54 AM 10.9 °F - 5.0 °F 77% 30.51 in 10.0 mi Calm Calm - N/A   Clear
8:54 AM 21.9 °F 15.7 °F 12.9 °F 68% 30.48 in 10.0 mi East 4.6 mph - N/A   Clear
9:54 AM 39.0 °F 32.3 °F 12.0 °F 33% 30.44 in 10.0 mi ENE 10.4 mph - N/A   Clear
10:54 AM 42.1 °F 37.1 °F 12.0 °F 29% 30.44 in 10.0 mi ENE 8.1 mph 19.6 mph N/A   Clear
11:54 AM 43.0 °F 36.0 °F 14.0 °F 31% 30.43 in 10.0 mi NE 13.8 mph - N/A   Clear
12:54 PM 43.0 °F 36.0 °F 15.1 °F 32% 30.39 in 10.0 mi NE 13.8 mph - N/A   Clear
1:54 PM 46.0 °F 40.2 °F 14.0 °F 28% 30.37 in 10.0 mi NE 12.7 mph - N/A   Clear
2:54 PM 46.9 °F - 14.0 °F 27% 30.35 in 10.0 mi NE 9.2 mph - N/A   Clear
3:54 PM 46.0 °F 39.9 °F 5.0 °F 19% 30.36 in 10.0 mi ENE 13.8 mph - N/A   Clear
4:54 PM 42.1 °F 35.7 °F 12.0 °F 29% 30.38 in 10.0 mi NE 11.5 mph - N/A   Clear
5:54 PM 35.1 °F 30.1 °F 12.0 °F 39% 30.43 in 10.0 mi ENE 5.8 mph - N/A   Clear
6:54 PM 23.0 °F 18.4 °F 12.0 °F 63% 30.50 in 10.0 mi ENE 3.5 mph - N/A   Clear
7:54 PM 21.0 °F 16.2 °F 10.0 °F 63% 30.50 in 10.0 mi ESE 3.5 mph - N/A   Clear
8:54 PM 15.1 °F 9.4 °F 9.0 °F 77% 30.48 in 10.0 mi NE 3.5 mph - N/A   Clear
9:54 PM 19.0 °F - 8.1 °F 62% 30.39 in 10.0 mi Calm Calm - N/A   Clear
10:54 PM 16.0 °F 10.4 °F 6.1 °F 65% 30.39 in 10.0 mi NE 3.5 mph - N/A   Clear
11:54 PM 14.0 °F 8.2 °F 7.0 °F 74% 30.39 in 10.0 mi East 3.5 mph - N/A   Clear